Flag for Sweden Weather past 2 weeks in Eskilstuna, Sweden

Now
57 °F

Drizzle. Partly sunny.


Feels Like: 56 °F
Forecast: 49 / 64 °F
Wind: 7 mph from North

Location: Vasteras / Hasslo

Current Time: Sep 2, 2015 at 7:29:20 PM

Latest Report: Sep 2, 2015 at 6:50 PM


Visibility: 2 mi

Pressure: 29.74 "Hg

Humidity: 94%

Dew point: 55 °F

Location of EskilstunaLocation

Historic Weather in Eskilstuna — Graph

°F

Eskilstuna temperature yesterday

Maximum temperature yesterday: 63 °F (at 3:50 PM)
Minimum temperature yesterday: 52 °F (at 12:20 AM)
Average temperature yesterday: 57 °F

Past Weeks' High & Low Weather Summary

 TemperatureHumidityPressure
High79 °F (Aug 25, 1:50 PM)100% (Aug 19, 2:20 AM)30.45 "Hg (Aug 19, 2:20 AM)
Low43 °F (Aug 20, 3:50 AM)36% (Aug 22, 1:20 PM)29.59 "Hg (Aug 27, 4:50 PM)
Average62 °F72%30.04 "Hg
* Reported Aug 18 6:20 PM — Sep 2 6:20 PM, Eskilstuna, Weather by CustomWeather, © 2015

Note: Actual official high and low records may vary slightly from our data, if they occured in-between our weather recording intervals... More about our weather records

Advertising

Eskilstuna weather history for previous 24 hours

 ConditionsComfort  
Time TempWeatherWind HumidityBarometerVisibility
6:20 PM
Wed, Sep 2
57 °FDrizzle. Partly sunny.8 mph94%29.74 "Hg2 mi
5:50 PM57 °FFog.10 mph94%29.74 "Hg4 mi
5:20 PM57 °FDrizzle. Partly sunny.12 mph94%29.74 "Hg3 mi
4:50 PM57 °FDrizzle. Partly sunny.10 mph94%29.71 "Hg2 mi
4:20 PM57 °FDrizzle. Partly sunny.8 mph94%29.71 "Hg3 mi
3:50 PM57 °FLight rain. Partly sunny.10 mph94%29.71 "Hg4 mi
3:20 PM57 °FDrizzle. Partly sunny.9 mph94%29.71 "Hg3 mi
2:50 PM57 °FLight rain. Partly sunny.9 mph94%29.71 "Hg2 mi
2:20 PM57 °FDrizzle. Partly sunny.7 mph94%29.71 "Hg3 mi
1:50 PM57 °FDrizzle. Broken clouds.10 mph94%29.71 "Hg1 mi
1:20 PM57 °FLight rain. Partly sunny.15 mph94%29.68 "Hg3 mi
12:50 PM57 °FLight rain. Partly sunny.16 mph88%29.68 "Hg3 mi
12:20 PM55 °FDrizzle. Partly sunny.14 mph94%29.68 "Hg3 mi
11:50 AM55 °FLight rain. Partly sunny.17 mph94%29.68 "Hg4 mi
11:20 AM55 °FLight rain. Partly sunny.17 mph94%29.68 "Hg4 mi
10:50 AM55 °FRain. Partly sunny.17 mph94%29.68 "Hg3 mi
10:20 AM57 °FLight rain. Partly sunny.20 mph88%29.68 "Hg2 mi
9:50 AM55 °FRain. Broken clouds.17 mph94%29.68 "Hg2 mi
9:20 AM55 °FRain. Broken clouds.16 mph94%29.68 "Hg3 mi
8:50 AM55 °FLight rain. Broken clouds.15 mph94%29.68 "Hg2 mi
8:20 AM57 °FRain. Partly sunny.14 mph88%29.68 "Hg3 mi
7:50 AM57 °FRain. Partly sunny.16 mph88%29.68 "Hg3 mi
7:20 AM57 °FRain. Broken clouds.16 mph88%29.71 "Hg4 mi
6:50 AM57 °FRain. Broken clouds.10 mph88%29.71 "Hg3 mi
6:20 AM57 °FRain. Partly cloudy.15 mph88%29.71 "Hg4 mi
5:50 AM57 °FRain. Partly cloudy.13 mph88%29.71 "Hg4 mi
5:20 AM57 °FRain. Passing clouds.N/A88%29.74 "Hg3 mi
4:50 AM57 °FLight rain. Passing clouds.N/A88%29.74 "Hg4 mi
4:20 AM57 °FLight rain. Passing clouds.N/A88%29.74 "HgN/A
3:50 AM57 °FLight rain. Passing clouds.N/A88%29.74 "HgN/A
3:20 AM57 °FLight rain. Overcast.N/A88%29.77 "Hg6 mi
2:50 AM57 °FRain. Overcast.N/A94%29.77 "HgN/A
2:20 AM57 °FLight rain. Passing clouds.N/A94%29.77 "HgN/A
1:50 AM57 °FDrizzle. Overcast.N/A94%29.77 "HgN/A
1:20 AM57 °FPassing clouds.N/A94%29.80 "HgN/A
12:50 AM57 °FRain. Overcast.N/A88%29.80 "HgN/A
11:20 PM
Tue, Sep 1
57 °FRain. Overcast.N/A88%29.83 "HgN/A
10:50 PM59 °FLight rain. Passing clouds.N/A77%29.80 "HgN/A
10:20 PM59 °FClear.8 mph77%29.83 "Hg10 mi
9:50 PM59 °FClear.9 mph77%29.83 "Hg10 mi
9:20 PM59 °FPassing clouds.6 mph77%29.83 "HgN/A
8:50 PM59 °FPassing clouds.6 mph77%29.83 "HgN/A
8:20 PM59 °FSunny.3 mph77%29.83 "Hg10 mi
7:50 PM61 °FScattered clouds.7 mph72%29.83 "HgN/A
7:20 PM61 °FScattered clouds.7 mph72%29.83 "HgN/A
Weather by CustomWeather, © 2015

See weather overviewHow to use our weather pages